Flag for Argentina Weather past 2 weeks in Corrientes, Corrientes, Argentina

Now
77 °F

Clear.


Feels Like: 78 °F
Forecast: 74 / 92 °F
Wind: 3 mph from Northeast

Location: Resistencia Aero.

Current Time: Mar 3, 2015 at 6:14:58 AM

Latest Report: Mar 3, 2015 at 5:00 AM


Visibility: 10 mi

Pressure: 29.77 "Hg

Humidity: 94%

Dew point: 75 °F

Location of CorrientesLocation

Historic Weather in Corrientes — Graph

°F

Corrientes temperature yesterday

Maximum temperature yesterday: 90 °F (at 4:00 PM)
Minimum temperature yesterday: 70 °F (at 2:00 PM)
Average temperature yesterday: 84 °F

Past Weeks' High & Low Weather Summary

 TemperatureHumidityPressure
High97 °F (Feb 25, 4:00 PM)100% (Feb 17, 7:00 AM)30.04 "Hg (Feb 17, 7:00 AM)
Low61 °F (Feb 21, 7:00 AM)38% (Feb 18, 5:00 PM)29.56 "Hg (Feb 18, 5:00 PM)
Average80 °F77%29.85 "Hg
* Reported Feb 16 5:00 AM — Mar 3 5:00 AM, Corrientes, Weather by CustomWeather, © 2015

Note: Actual official high and low records may vary slightly from our data, if they occured in-between our weather recording intervals... More about our weather records

Advertising

Corrientes weather history for previous 24 hours

 ConditionsComfort  
Time TempWeatherWind HumidityBarometerVisibility
5:00 AM
Tue, Mar 3
77 °FClear.3 mph94%29.77 "Hg10 mi
4:00 AM79 °FClear.6 mph89%29.77 "Hg10 mi
3:00 AM79 °FClear.6 mph89%29.77 "Hg10 mi
2:00 AM79 °FClear.6 mph94%29.80 "Hg10 mi
1:00 AM81 °FClear.2 mph89%29.80 "Hg10 mi
12:00 AM81 °FClear.6 mph89%29.80 "Hg10 mi
11:00 PM
Mon, Mar 2
81 °FClear.6 mph84%29.80 "Hg10 mi
10:00 PM82 °FClear.9 mph84%29.77 "Hg10 mi
9:00 PM82 °FClear.2 mph84%29.77 "Hg10 mi
8:00 PM84 °FPassing clouds.2 mph79%29.74 "HgN/A
7:00 PM86 °FPassing clouds.9 mph75%29.74 "HgN/A
6:00 PM88 °FPartly sunny.6 mph70%29.74 "HgN/A
5:00 PM90 °FBroken clouds.9 mph67%29.74 "HgN/A
4:00 PM90 °FBroken clouds.9 mph67%29.77 "HgN/A
3:00 PM88 °FMore clouds than sun.9 mph66%29.80 "HgN/A
2:00 PM70 °FBroken clouds.15 mph100%29.83 "HgN/A
1:00 PM88 °FBroken clouds.N/A70%29.86 "HgN/A
12:00 PM86 °FBroken clouds.15 mph75%29.89 "HgN/A
11:00 AM82 °FBroken clouds.9 mph79%29.89 "HgN/A
10:00 AM82 °FSunny.9 mph79%29.89 "Hg10 mi
9:00 AM79 °FSunny.9 mph84%29.89 "Hg10 mi
Weather by CustomWeather, © 2015

See weather overviewHow to use our weather pages